• In Italy
  • List of Countries
  • For 7 days
  • Water Temperature
  • Satellite Maps
  • Weather Map
  • Weather Widgets
  • user-avatar
    Login

    Hourly Weather Drani

    Today, 20 July, Friday

    Time Temperature Precipitation Wind Pressure Humidity
    00:00 +18°C° 0 mm 2 mps 737 mmHg 97%
    01:00 +18°C° 0 mm 2 mps 737 mmHg 97%
    02:00 +17°C° 0 mm 2 mps 737 mmHg 97%
    03:00 +17°C° 0 mm 2 mps 737 mmHg 97%
    04:00 +17°C° 0 mm 2 mps 737 mmHg 98%
    05:00 +17°C° 0 mm 2 mps 737 mmHg 98%
    06:00 +18°C° 0 mm 2 mps 737 mmHg 95%
    07:00 +19°C° 0 mm 2 mps 737 mmHg 93%
    08:00 +21°C° 0 mm 3 mps 737 mmHg 90%
    09:00 +22°C° 0.4 mm 3 mps 737 mmHg 86%
    10:00 +24°C° 0.4 mm 3 mps 737 mmHg 83%
    11:00 +25°C° 0.4 mm 3 mps 737 mmHg 80%
    12:00 +25°C° 0.5 mm 3 mps 737 mmHg 78%
    13:00 +26°C° 0.5 mm 4 mps 737 mmHg 76%
    14:00 +26°C° 0.5 mm 4 mps 737 mmHg 74%
    15:00 +26°C° 0.3 mm 4 mps 737 mmHg 75%
    16:00 +26°C° 0.3 mm 4 mps 737 mmHg 75%
    17:00 +26°C° 0.3 mm 3 mps 737 mmHg 76%
    18:00 +25°C° 0.2 mm 3 mps 737 mmHg 80%
    19:00 +24°C° 0.2 mm 3 mps 737 mmHg 84%
    20:00 +23°C° 0.2 mm 2 mps 737 mmHg 88%
    21:00 +21°C° 0 mm 2 mps 737 mmHg 90%
    22:00 +20°C° 0 mm 2 mps 737 mmHg 91%
    23:00 +19°C° 0 mm 2 mps 737 mmHg 93%

    Tomorrow, 21 July, Saturday

    Time Temperature Precipitation Wind Pressure Humidity
    00:00 +19°C° 0 mm 2 mps 737 mmHg 94%
    01:00 +19°C° 0 mm 3 mps 737 mmHg 95%
    02:00 +18°C° 0 mm 3 mps 737 mmHg 95%
    03:00 +18°C° 0 mm 3 mps 737 mmHg 96%
    04:00 +18°C° 0 mm 3 mps 737 mmHg 96%
    05:00 +17°C° 0 mm 3 mps 737 mmHg 96%
    06:00 +19°C° 0 mm 3 mps 738 mmHg 93%
    07:00 +20°C° 0 mm 3 mps 738 mmHg 90%
    08:00 +21°C° 0 mm 3 mps 738 mmHg 86%
    09:00 +22°C° 0 mm 3 mps 738 mmHg 81%
    10:00 +24°C° 0 mm 3 mps 738 mmHg 76%
    11:00 +26°C° 0 mm 4 mps 738 mmHg 70%
    12:00 +26°C° 0.1 mm 4 mps 738 mmHg 69%
    13:00 +26°C° 0.1 mm 4 mps 738 mmHg 67%
    14:00 +27°C° 0.1 mm 4 mps 738 mmHg 65%
    15:00 +27°C° 0.1 mm 4 mps 738 mmHg 67%
    16:00 +27°C° 0.1 mm 3 mps 738 mmHg 69%
    17:00 +26°C° 0.1 mm 3 mps 738 mmHg 71%
    18:00 +25°C° 0 mm 3 mps 738 mmHg 75%
    19:00 +24°C° 0 mm 3 mps 738 mmHg 80%
    20:00 +23°C° 0 mm 2 mps 738 mmHg 85%
    21:00 +21°C° 0 mm 3 mps 738 mmHg 88%
    22:00 +20°C° 0 mm 3 mps 739 mmHg 90%
    23:00 +19°C° 0 mm 3 mps 739 mmHg 93%

    Day after tomorrow, 22 July, Sunday

    Time Temperature Precipitation Wind Pressure Humidity
    00:00 +19°C° 0 mm 3 mps 739 mmHg 94%
    01:00 +18°C° 0 mm 3 mps 739 mmHg 94%
    02:00 +18°C° 0 mm 3 mps 739 mmHg 94%
    03:00 +18°C° 0 mm 3 mps 739 mmHg 94%
    04:00 +18°C° 0 mm 3 mps 739 mmHg 93%
    05:00 +17°C° 0 mm 3 mps 739 mmHg 92%
    06:00 +18°C° 0 mm 3 mps 739 mmHg 90%
    07:00 +19°C° 0 mm 4 mps 739 mmHg 87%
    08:00 +20°C° 0 mm 4 mps 739 mmHg 85%
    09:00 +20°C° 0.1 mm 4 mps 739 mmHg 84%
    10:00 +21°C° 0.1 mm 4 mps 739 mmHg 82%
    11:00 +21°C° 0.1 mm 4 mps 739 mmHg 81%
    12:00 +22°C° 0 mm 4 mps 739 mmHg 79%
    13:00 +22°C° 0 mm 4 mps 739 mmHg 77%
    14:00 +23°C° 0 mm 4 mps 739 mmHg 75%
    15:00 +23°C° 0 mm 4 mps 739 mmHg 75%
    16:00 +23°C° 0 mm 4 mps 739 mmHg 75%
    17:00 +23°C° 0 mm 4 mps 739 mmHg 75%
    18:00 +22°C° 0 mm 3 mps 739 mmHg 79%
    19:00 +21°C° 0 mm 3 mps 739 mmHg 83%
    20:00 +20°C° 0 mm 2 mps 739 mmHg 87%
    21:00 +19°C° 0 mm 2 mps 739 mmHg 89%
    22:00 +18°C° 0 mm 2 mps 739 mmHg 91%
    23:00 +18°C° 0 mm 2 mps 739 mmHg 93%

    23 July, Monday

    Time Temperature Precipitation Wind Pressure Humidity
    00:00 +17°C° 0 mm 3 mps 739 mmHg 93%
    01:00 +17°C° 0 mm 3 mps 738 mmHg 93%
    02:00 +17°C° 0 mm 3 mps 738 mmHg 93%
    03:00 +17°C° 0 mm 3 mps 738 mmHg 93%
    04:00 +17°C° 0 mm 3 mps 738 mmHg 93%
    05:00 +17°C° 0 mm 3 mps 738 mmHg 93%
    06:00 +18°C° 0.3 mm 4 mps 738 mmHg 91%
    07:00 +19°C° 0.3 mm 4 mps 738 mmHg 89%
    08:00 +20°C° 0.3 mm 4 mps 738 mmHg 87%
    09:00 +20°C° 0.7 mm 4 mps 738 mmHg 87%
    10:00 +20°C° 0.7 mm 4 mps 739 mmHg 86%
    11:00 +21°C° 0.7 mm 4 mps 739 mmHg 86%
    12:00 +21°C° 0.2 mm 4 mps 738 mmHg 85%
    13:00 +21°C° 0.2 mm 4 mps 738 mmHg 84%
    14:00 +22°C° 0.2 mm 4 mps 738 mmHg 83%
    15:00 +22°C° 0.3 mm 4 mps 738 mmHg 83%
    16:00 +22°C° 0.3 mm 4 mps 738 mmHg 83%
    17:00 +22°C° 0.3 mm 4 mps 738 mmHg 83%
    18:00 +21°C° 0.4 mm 4 mps 738 mmHg 86%
    19:00 +21°C° 0.4 mm 3 mps 738 mmHg 89%
    20:00 +20°C° 0.4 mm 3 mps 738 mmHg 92%
    21:00 +19°C° 0.3 mm 3 mps 738 mmHg 94%
    22:00 +19°C° 0.3 mm 3 mps 738 mmHg 95%
    23:00 +18°C° 0.3 mm 3 mps 738 mmHg 97%

    24 July, Tuesday

    Time Temperature Precipitation Wind Pressure Humidity
    00:00 +18°C° 0.6 mm 3 mps 738 mmHg 97%
    01:00 +18°C° 0.6 mm 3 mps 738 mmHg 97%
    02:00 +18°C° 0.6 mm 3 mps 738 mmHg 97%
    03:00 +18°C° 0.4 mm 2 mps 738 mmHg 97%
    04:00 +18°C° 0.4 mm 2 mps 738 mmHg 97%
    05:00 +18°C° 0.4 mm 2 mps 738 mmHg 97%
    06:00 +19°C° 0.9 mm 2 mps 738 mmHg 97%
    07:00 +19°C° 0.9 mm 2 mps 739 mmHg 96%
    08:00 +19°C° 0.9 mm 2 mps 739 mmHg 96%
    09:00 +20°C° 1.2 mm 2 mps 739 mmHg 93%
    10:00 +20°C° 1.2 mm 2 mps 739 mmHg 91%
    11:00 +21°C° 1.2 mm 2 mps 739 mmHg 89%
    12:00 +22°C° 0.7 mm 3 mps 739 mmHg 87%
    13:00 +22°C° 0.7 mm 3 mps 739 mmHg 85%
    14:00 +24°C° 0.7 mm 3 mps 739 mmHg 83%
    15:00 +22°C° 1 mm 3 mps 739 mmHg 85%
    16:00 +22°C° 1 mm 3 mps 739 mmHg 87%
    17:00 +22°C° 1 mm 3 mps 739 mmHg 88%
    18:00 +21°C° 0.5 mm 3 mps 739 mmHg 91%
    19:00 +20°C° 0.5 mm 3 mps 739 mmHg 93%
    20:00 +20°C° 0.5 mm 2 mps 739 mmHg 95%
    21:00 +19°C° 0 mm 2 mps 739 mmHg 95%
    22:00 +19°C° 0 mm 2 mps 739 mmHg 96%
    23:00 +18°C° 0 mm 2 mps 739 mmHg 96%

    25 July, Wednesday

    Time Temperature Precipitation Wind Pressure Humidity
    00:00 +18°C° 0 mm 2 mps 739 mmHg 97%
    01:00 +18°C° 0 mm 2 mps 739 mmHg 97%
    02:00 +18°C° 0 mm 2 mps 739 mmHg 97%
    03:00 +18°C° 0 mm 2 mps 739 mmHg 97%
    04:00 +19°C° 0 mm 1 mps 739 mmHg 97%
    05:00 +19°C° 0 mm 1 mps 740 mmHg 98%
    06:00 +20°C° 0 mm 1 mps 740 mmHg 96%
    07:00 +20°C° 0 mm 2 mps 740 mmHg 95%
    08:00 +20°C° 0 mm 2 mps 740 mmHg 94%
    09:00 +21°C° 0.1 mm 2 mps 740 mmHg 93%
    10:00 +21°C° 0.1 mm 2 mps 740 mmHg 92%
    11:00 +23°C° 0.1 mm 2 mps 741 mmHg 91%
    12:00 +24°C° 0.2 mm 2 mps 740 mmHg 87%
    13:00 +25°C° 0.2 mm 2 mps 740 mmHg 82%
    14:00 +26°C° 0.2 mm 2 mps 740 mmHg 78%
    15:00 +26°C° 0.4 mm 2 mps 740 mmHg 78%
    16:00 +26°C° 0.4 mm 2 mps 740 mmHg 77%
    17:00 +26°C° 0.4 mm 2 mps 740 mmHg 77%
    18:00 +25°C° 0.5 mm 1 mps 740 mmHg 82%
    19:00 +24°C° 0.5 mm 1 mps 740 mmHg 87%
    20:00 +23°C° 0.5 mm 1 mps 740 mmHg 92%
    21:00 +22°C° 0 mm 1 mps 740 mmHg 93%
    22:00 +22°C° 0 mm 1 mps 740 mmHg 94%
    23:00 +21°C° 0 mm 1 mps 740 mmHg 95%
    Show more